Location: Arezzo
(43.4170°N, 11.8830°E)
Time: 09:05:01
(UTC+02:00)

STARLINK-2746 - Visible Passes

Search period start: 28 October 2021 00:00
Search period end: 06 November 2021 23:00
Orbit: 546 x 548 km, 53.1° (Epoch: 27 October)

Date Brightness Start Highest point End Pass type
(mag) Time Alt. Az. Time Alt. Az. Time Alt. Az.
28 Oct 3.6 05:54:33 45° SW 05:55:44 76° SE 05:59:51 10° ENE visible
29 Oct 3.4 05:49:03 72° WSW 05:49:26 84° NW 05:53:35 10° NE visible
30 Oct 3.7 05:43:27 64° N 05:43:27 64° N 05:47:19 10° NE visible
31 Oct 4.3 04:37:45 45° N 04:37:45 45° N 04:41:03 10° NE visible
31 Oct 5.1 06:13:53 10° WNW 06:17:12 23° N 06:20:31 10° NE visible
01 Nov 4.8 04:32:01 34° NNE 04:32:01 34° NNE 04:34:48 10° NE visible
01 Nov 5.2 06:07:54 10° WNW 06:11:09 22° N 06:14:23 10° NE visible
02 Nov 5.3 04:26:14 27° NNE 04:26:14 27° NNE 04:28:34 10° NE visible
02 Nov 5.3 06:01:55 10° NW 06:05:07 21° N 06:08:19 10° NE visible
03 Nov 5.6 04:20:26 22° NNE 04:20:26 22° NNE 04:22:22 10° NE visible
03 Nov 5.4 05:56:03 11° NW 05:59:07 21° N 06:02:18 10° NE visible
04 Nov 5.9 04:14:38 19° NNE 04:14:38 19° NNE 04:16:13 10° NE visible
04 Nov 5.4 05:50:15 12° NW 05:53:07 21° N 05:56:21 10° NE visible
05 Nov 6.1 04:08:49 17° NNE 04:08:49 17° NNE 04:10:05 10° NE visible
05 Nov 5.3 05:44:26 13° NW 05:47:09 22° N 05:50:26 10° ENE visible
06 Nov 6.3 04:03:02 15° NE 04:03:02 15° NE 04:04:00 10° NE visible
06 Nov 5.3 05:38:39 14° NW 05:41:12 24° N 05:44:35 10° ENE visible
